Weather History for Santa Maria, CA

Change the Weather History Date:

Monday, January 7, 2013

  Actual Average Record
Temperature  
Mean Temperature 48 °F 51 °F  
Max Temperature 59 °F 63 °F 83 °F (1962)
Min Temperature 37 °F 39 °F 23 °F (1973)
Degree Days  
Heating Degree Days 17 14  
Month to date heating degree days 122 98  
Since 1 July heating degree days 969 1170  
Cooling Degree Days 0 0  
Month to date cooling degree days 0 0  
Year to date cooling degree days 0 0  
Moisture  
Dew Point 41 °F    
Average Humidity 75    
Maximum Humidity 92    
Minimum Humidity 57    
Precipitation  
Precipitation 0.00 in 0.08 in 1.31 in (1931)
Month to date precipitation 0.40 0.58  
Year to date precipitation 0.40 0.58  
Since 1 July precipitation 4.13 4.82  
Sea Level Pressure  
Sea Level Pressure 30.16 in    
Wind  
Wind Speed 10 mph (NW)    
Max Wind Speed 20 mph    
Max Gust Speed 24 mph    
Visibility 10 miles    
Events      
T = Trace of Precipitation, MM = Missing Value Source: NWS Daily Summary

Daily Weather History Graph

Daily Weather History Graph

Search for Another Location

Airport:

Trip Planner

Search our weather history database for the weather conditions in past years. The results will help you decide how hot, cold, wet, or windy it might be!

Date:

Astronomy

Jan. 07, 2013 Rise Set
Actual Time 7:10 AM PST 5:06 PM PST
Civil Twilight 6:42 AM PST 5:34 PM PST
Nautical Twilight 6:10 AM PST 6:05 PM PST
Astronomical Twilight 5:40 AM PST 6:36 PM PST
Moon 2:42 AM PST (1/7) 1:19 PM PST (1/7)
Length of Visible Light 10h 52m
Length of Day
9h 56m
Waning Crescent, 21% of the Moon is Illuminated
Jan 7
Waning Crescent
Jan 11
New
Jan 18
First Quarter
Jan 26
Full
Feb 3
Last Quarter

Hourly Weather History & Observations

Time (PST) Temp. Windchill Dew Point Humidity Pressure Visibility Wind Dir Wind Speed Gust Speed Precip Events Conditions
12:51 AM 44.1 °F 39.5 °F 39.0 °F 82% 30.13 in 10.0 mi NNE 8.1 mph - N/A   Clear
1:51 AM 46.0 °F 42.5 °F 39.0 °F 76% 30.14 in 10.0 mi North 6.9 mph - N/A   Clear
2:51 AM 39.9 °F 34.5 °F 37.0 °F 89% 30.17 in 10.0 mi NW 8.1 mph - N/A   Clear
3:51 AM 41.0 °F 35.2 °F 37.9 °F 89% 30.17 in 10.0 mi NW 9.2 mph - N/A   Clear
4:51 AM 41.0 °F 35.8 °F 37.9 °F 89% 30.17 in 10.0 mi NNW 8.1 mph - N/A   Clear
5:51 AM 39.0 °F 34.0 °F 36.0 °F 89% 30.18 in 10.0 mi NW 6.9 mph - N/A   Clear
6:51 AM 39.9 °F 33.9 °F 37.0 °F 89% 30.22 in 10.0 mi NNW 9.2 mph - N/A   Clear
7:51 AM 39.9 °F 34.5 °F 37.0 °F 89% 30.22 in 10.0 mi West 8.1 mph - N/A   Clear
8:51 AM 48.2 °F - 39.2 °F 71% 30.21 in 10.0 mi NNW 9.2 mph - N/A   Partly Cloudy
9:51 AM 52.0 °F - 42.1 °F 69% 30.22 in 10.0 mi NW 9.2 mph - N/A   Scattered Clouds
10:51 AM 55.0 °F - 43.0 °F 64% 30.21 in 10.0 mi NW 11.5 mph - N/A   Scattered Clouds
11:51 AM 55.0 °F - 43.0 °F 64% 30.17 in 10.0 mi NW 12.7 mph - N/A   Scattered Clouds
12:51 PM 55.9 °F - 45.0 °F 67% 30.15 in 10.0 mi NW 15.0 mph - N/A   Scattered Clouds
1:51 PM 57.9 °F - 43.0 °F 58% 30.13 in 10.0 mi NW 17.3 mph - N/A   Partly Cloudy
2:51 PM 57.9 °F - 46.0 °F 65% 30.12 in 10.0 mi WNW 11.5 mph - N/A   Partly Cloudy
3:51 PM 55.9 °F - 44.1 °F 64% 30.12 in 10.0 mi WNW 8.1 mph - N/A   Scattered Clouds
4:51 PM 52.0 °F - 46.9 °F 83% 30.12 in 10.0 mi West 8.1 mph - N/A   Scattered Clouds
5:51 PM 50.0 °F - 46.9 °F 89% 30.13 in 10.0 mi WNW 6.9 mph - N/A   Scattered Clouds
6:51 PM 48.0 °F - 44.1 °F 86% 30.14 in 10.0 mi WNW 8.1 mph - N/A   Clear
7:51 PM 51.1 °F - 39.9 °F 66% 30.13 in 10.0 mi NNW 6.9 mph - N/A   Clear
8:51 PM 50.0 °F - 37.0 °F 61% 30.13 in 10.0 mi NW 6.9 mph - N/A   Clear
9:51 PM 48.0 °F - 41.0 °F 77% 30.13 in 10.0 mi NNW 15.0 mph - N/A   Clear
10:51 PM 46.0 °F 41.0 °F 39.9 °F 79% 30.13 in 10.0 mi NNW 10.4 mph - N/A   Clear
11:51 PM 45.0 °F 40.1 °F 37.9 °F 76% 30.12 in 10.0 mi NW 9.2 mph - N/A   Clear